Starlink 32941

operational
NORAD ID: 63119 Int'l Des: 2025-039 Owner: SPXS Country: US Constellation: starlink
LEOCIRCULAR

关于 Starlink 32941

正在加载描述...

实时位置

正在加载3D地球...

即将过境

高度历史

Altitude vs Time

uPlot chart will show altitude changes over time

两行轨道根数

1 63119U 25039R 25302.62619429 .00042412 00000-0 15384-2 0 9996
2 63119 43.0026 21.5862 0002364 271.5279 88.5302 15.27653029 38152
Epoch: Oct 29, 2025 • Age: 37 hours

当前状态

高度 491.3 km
速度 7.62 km/s
星下点 -35.04°S, 139.24°E
发射日期 Feb 27, 2025
运行时间 0.6 years
类型 internet

技术详情

分类 Payload
质量 730.00 kg
干质量 700.00 kg
总质量 730.00 kg
长度 0.30 m
直径 4.10 m
跨度 29.00 m
形状 Box + pan
制造商 SPXS
平台类型 Starlink V2M
阶段状态 In Orbit
所有者/国家 SPXS/US

大型星座

Loading constellations...